Flag for Ukraine Weather past 2 weeks in Luhansk, Ukraine

Now
34 °F

Mostly cloudy.


Feels Like: 27 °F
Forecast: 31 / 41 °F
Wind: 8 mph from South

Location: Rostov-Na-Donu

Current Time: Mar 5, 2015 at 5:55:55 AM

Latest Report: Mar 5, 2015 at 5:00 AM


Visibility: 4 mi

Pressure: 29.98 "Hg

Humidity: 93%

Dew point: 32 °F

Location of LuhanskLocation

Historic Weather in Luhansk — Graph

°F

Luhansk temperature yesterday

Maximum temperature yesterday: 46 °F (at 1:00 PM)
Minimum temperature yesterday: 32 °F (at 5:00 AM)
Average temperature yesterday: 38 °F

Past Weeks' High & Low Weather Summary

 TemperatureHumidityPressure
High52 °F (Feb 24, 2:00 PM)100% (Feb 27, 4:30 AM)30.63 "Hg (Feb 27, 4:30 AM)
Low5 °F (Feb 18, 7:00 AM)31% (Feb 24, 6:30 PM)29.89 "Hg (Mar 4, 12:30 PM)
Average32 °F77%30.16 "Hg
* Reported Feb 18 4:00 AM — Mar 5 4:30 AM, Luhansk, Weather by CustomWeather, © 2015

Note: Actual official high and low records may vary slightly from our data, if they occured in-between our weather recording intervals... More about our weather records

Advertising

Luhansk weather history for previous 24 hours

 ConditionsComfort  
Time TempWeatherWind HumidityBarometerVisibility
4:30 AM
Thu, Mar 5
34 °FLight rain. Fog.10 mph93%29.95 "Hg3 mi
4:00 AM36 °FLight rain. Mostly cloudy.10 mph87%29.95 "Hg4 mi
3:30 AM36 °FLight rain. Mostly cloudy.8 mph87%29.95 "Hg4 mi
3:00 AM36 °FLight rain. Mostly cloudy.10 mph87%29.95 "Hg5 mi
2:30 AM36 °FLow clouds.13 mph87%29.95 "Hg5 mi
2:00 AM36 °FOvercast.13 mph87%29.95 "HgN/A
1:30 AM36 °FOvercast.13 mph87%29.95 "HgN/A
1:00 AM36 °FOvercast.13 mph87%29.95 "HgN/A
12:00 AM36 °FOvercast.13 mph87%29.95 "HgN/A
11:30 PM
Wed, Mar 4
36 °FOvercast.13 mph87%29.95 "HgN/A
11:00 PM36 °FOvercast.10 mph87%29.95 "HgN/A
10:30 PM36 °FOvercast.17 mph81%29.95 "HgN/A
10:00 PM36 °FOvercast.17 mph81%29.95 "HgN/A
9:30 PM36 °FOvercast.17 mph81%29.95 "HgN/A
9:00 PM37 °FOvercast.15 mph75%29.95 "HgN/A
8:30 PM36 °FOvercast.15 mph81%29.95 "HgN/A
8:00 PM37 °FOvercast.13 mph81%29.95 "HgN/A
7:30 PM37 °FMostly cloudy.13 mph75%29.95 "HgN/A
7:00 PM37 °FMostly cloudy.8 mph81%29.95 "HgN/A
6:30 PM37 °FMostly cloudy.13 mph81%29.92 "HgN/A
6:00 PM37 °FMostly cloudy.15 mph87%29.92 "HgN/A
5:30 PM37 °FMostly cloudy.13 mph93%29.92 "HgN/A
5:00 PM39 °FMostly cloudy.8 mph93%29.92 "Hg4 mi
4:30 PM39 °FFog.13 mph93%29.89 "Hg3 mi
4:00 PM43 °FLight rain. Fog.10 mph87%29.89 "Hg2 mi
3:30 PM43 °FLight rain. Mostly cloudy.8 mph81%29.89 "Hg4 mi
3:00 PM43 °FLight rain. Mostly cloudy.10 mph81%29.89 "HgN/A
2:30 PM45 °FLight rain. Mostly cloudy.13 mph66%29.89 "HgN/A
2:00 PM45 °FMostly cloudy.15 mph66%29.89 "HgN/A
1:30 PM45 °FPartly sunny.13 mph66%29.89 "HgN/A
1:00 PM46 °FPartly sunny.13 mph57%29.89 "HgN/A
12:30 PM45 °FPartly sunny.13 mph61%29.89 "HgN/A
12:00 PM43 °FSunny.15 mph66%29.92 "Hg10 mi
11:30 AM43 °FSunny.15 mph66%29.92 "Hg10 mi
11:00 AM41 °FSunny.15 mph70%29.92 "Hg10 mi
10:30 AM41 °FSunny.15 mph66%29.95 "Hg10 mi
10:00 AM39 °FSunny.13 mph70%29.95 "Hg10 mi
9:30 AM37 °FSunny.15 mph75%29.95 "Hg10 mi
9:00 AM36 °FSunny.10 mph75%29.95 "Hg10 mi
8:30 AM36 °FPartly sunny.10 mph75%29.95 "HgN/A
8:00 AM34 °FPartly sunny.8 mph81%29.95 "HgN/A
7:30 AM32 °FPartly cloudy.8 mph80%29.95 "HgN/A
6:30 AM34 °FMostly cloudy.6 mph81%29.95 "HgN/A
6:00 AM34 °FMostly cloudy.6 mph81%29.95 "HgN/A
5:30 AM32 °FMostly cloudy.3 mph80%29.95 "HgN/A
5:00 AM32 °FMostly cloudy.6 mph80%29.95 "HgN/A
Weather by CustomWeather, © 2015

See weather overviewHow to use our weather pages